User: anonymous   Login
Location: *
(50.3194°N, 7.1067°E)
Time: 00:35:49
(UTC+00:00)
Language:

Cosmos 2056 Rocket - Orbit

View from above orbital plane
View from above orbital plane
View from above satellite
View from above satellite

Ground track
Ground track

The orbit data is extracted from the following two-line orbital elements,

1 20433U 90004B   19318.81879765  .00000070  00000-0  32511-4 0  9991
2 20433  74.0351 179.3876 0039835  94.0212 340.0407 14.36077321561612
Epoch (UTC): 14 November 2019 19:39:04
Eccentricity: 0.0039835
inclination: 74.0351°
perigee height: 743 km
apogee height: 800 km
right ascension of ascending node: 179.3876°
argument of perigee: 94.0212°
revolutions per day: 14.36077321
mean anomaly at epoch: 340.0407°
orbit number at epoch: 56161

The dashed part of the orbit path shows where the satellite is in the earth's shadow,  

DLR